Time,TemperatureF,DewpointF,PressureIn,WindDirection,WindDirectionDegrees,WindSpeedMPH,WindSpeedGustMPH,Humidity,HourlyPrecipIn,Conditions,Clouds,dailyrainin,SoftwareType,DateUTC
2013-04-08 00:04:00,38.9,31.9,29.88,SE,133,0.0,3.0,76,-99.99,,,0.00,1-wire,2013-04-08 05:04:00,
2013-04-08 00:10:00,38.7,31.8,29.86,SE,128,0.0,3.0,76,-99.99,,,0.00,1-wire,2013-04-08 05:10:00,
2013-04-08 00:15:00,38.5,31.7,29.86,SE,128,0.0,3.0,76,-99.99,,,0.00,1-wire,2013-04-08 05:15:00,
2013-04-08 00:22:00,38.4,31.5,29.86,SE,126,1.0,6.0,76,-99.99,,,0.00,1-wire,2013-04-08 05:22:00,
2013-04-08 00:27:00,38.3,31.5,29.86,SE,126,1.0,3.0,76,-99.99,,,0.00,1-wire,2013-04-08 05:27:00,
2013-04-08 00:32:00,38.3,31.4,29.86,SE,126,1.0,3.0,76,-99.99,,,0.00,1-wire,2013-04-08 05:32:00,
2013-04-08 00:37:00,38.4,31.4,29.86,SE,127,1.0,3.0,76,-99.99,,,0.00,1-wire,2013-04-08 05:37:00,
2013-04-08 00:42:00,38.2,31.2,29.85,SE,127,1.0,6.0,76,-99.99,,,0.00,1-wire,2013-04-08 05:42:00,
2013-04-08 00:47:00,38.3,31.3,29.85,SE,127,4.0,6.0,76,-99.99,,,0.00,1-wire,2013-04-08 05:47:00,
2013-04-08 00:52:00,38.4,31.4,29.85,SE,126,2.0,6.0,76,-99.99,,,0.00,1-wire,2013-04-08 05:52:00,
2013-04-08 00:57:00,38.2,31.2,29.85,SE,126,2.0,11.0,75,-99.99,,,0.00,1-wire,2013-04-08 05:57:00,
2013-04-08 01:02:00,38.3,31.2,29.85,SE,126,3.0,8.0,75,-99.99,,,0.00,1-wire,2013-04-08 06:02:00,
2013-04-08 01:07:00,38.2,31.1,29.85,ESE,123,3.0,6.0,75,-99.99,,,0.00,1-wire,2013-04-08 06:07:00,
2013-04-08 01:12:00,38.4,31.2,29.85,ESE,123,2.0,11.0,75,-99.99,,,0.00,1-wire,2013-04-08 06:12:00,
2013-04-08 01:17:00,38.3,31.0,29.85,ESE,123,4.0,9.0,75,-99.99,,,0.00,1-wire,2013-04-08 06:17:00,
2013-04-08 01:22:00,38.4,31.2,29.85,ESE,115,4.0,9.0,75,-99.99,,,0.00,1-wire,2013-04-08 06:22:00,
2013-04-08 01:27:00,38.5,31.1,29.85,ESE,115,3.0,6.0,75,-99.99,,,0.00,1-wire,2013-04-08 06:27:00,
2013-04-08 01:32:00,38.5,31.2,29.85,ESE,115,2.0,6.0,75,-99.99,,,0.00,1-wire,2013-04-08 06:32:00,
2013-04-08 01:37:00,38.4,30.9,29.84,ESE,119,5.0,9.0,74,-99.99,,,0.00,1-wire,2013-04-08 06:37:00,
2013-04-08 01:42:00,38.8,31.3,29.85,ESE,119,1.0,3.0,74,-99.99,,,0.00,1-wire,2013-04-08 06:42:00,
2013-04-08 01:47:00,38.4,30.9,29.85,ESE,119,1.0,3.0,74,-99.99,,,0.00,1-wire,2013-04-08 06:47:00,
2013-04-08 01:52:00,38.4,30.9,29.84,SE,126,3.0,6.0,74,-99.99,,,0.00,1-wire,2013-04-08 06:52:00,
2013-04-08 01:57:00,38.3,30.9,29.84,SE,126,3.0,6.0,74,-99.99,,,0.00,1-wire,2013-04-08 06:57:00,
2013-04-08 02:02:00,38.3,30.8,29.84,SE,126,5.0,9.0,74,-99.99,,,0.00,1-wire,2013-04-08 07:02:00,
2013-04-08 02:07:00,38.3,30.9,29.84,SE,134,5.0,9.0,75,-99.99,,,0.00,1-wire,2013-04-08 07:07:00,
2013-04-08 02:12:00,38.3,30.8,29.82,SE,134,4.0,8.0,74,-99.99,,,0.00,1-wire,2013-04-08 07:12:00,
2013-04-08 02:17:00,38.5,31.2,29.82,SE,134,4.0,10.0,75,-99.99,,,0.00,1-wire,2013-04-08 07:17:00,
2013-04-08 02:22:00,38.4,30.9,29.82,SE,132,4.0,8.0,74,-99.99,,,0.00,1-wire,2013-04-08 07:22:00,
2013-04-08 02:27:00,38.6,31.1,29.82,SE,132,3.0,6.0,74,-99.99,,,0.00,1-wire,2013-04-08 07:27:00,
2013-04-08 02:32:00,38.6,31.2,29.82,SE,132,3.0,8.0,75,-99.99,,,0.00,1-wire,2013-04-08 07:32:00,
2013-04-08 02:37:00,38.5,31.1,29.82,SE,135,4.0,8.0,75,-99.99,,,0.00,1-wire,2013-04-08 07:37:00,
2013-04-08 02:42:00,38.5,31.1,29.81,SE,135,1.0,3.0,75,-99.99,,,0.00,1-wire,2013-04-08 07:42:00,
2013-04-08 02:48:00,38.6,31.3,29.80,SE,135,3.0,9.0,75,-99.99,,,0.00,1-wire,2013-04-08 07:48:00,
2013-04-08 02:53:00,38.5,31.1,29.79,SE,130,3.0,11.0,74,-99.99,,,0.00,1-wire,2013-04-08 07:53:00,
2013-04-08 02:59:00,38.6,31.2,29.79,SE,130,1.0,3.0,74,-99.99,,,0.00,1-wire,2013-04-08 07:59:00,
2013-04-08 03:04:00,38.5,31.2,29.79,SE,130,1.0,3.0,75,-99.99,,,0.00,1-wire,2013-04-08 08:04:00,
2013-04-08 03:10:00,38.6,31.3,29.78,SE,127,2.0,6.0,75,-99.99,,,0.00,1-wire,2013-04-08 08:10:00,
2013-04-08 03:15:00,38.7,31.4,29.79,SE,127,2.0,6.0,75,-99.99,,,0.00,1-wire,2013-04-08 08:15:00,
2013-04-08 03:20:00,38.6,31.3,29.78,SE,127,3.0,6.0,75,-99.99,,,0.00,1-wire,2013-04-08 08:20:00,
2013-04-08 03:27:00,38.7,31.4,29.78,SE,131,6.0,11.0,75,-99.99,,,0.00,1-wire,2013-04-08 08:27:00,
2013-04-08 03:32:00,38.9,31.4,29.77,SE,131,3.0,6.0,74,-99.99,,,0.00,1-wire,2013-04-08 08:32:00,
2013-04-08 03:37:00,38.9,31.6,29.77,SE,130,2.0,3.0,75,-99.99,,,0.00,1-wire,2013-04-08 08:37:00,
2013-04-08 03:43:00,38.9,31.4,29.77,SE,130,3.0,6.0,74,-99.99,,,0.00,1-wire,2013-04-08 08:43:00,
2013-04-08 03:48:00,39.0,31.5,29.77,SE,130,2.0,6.0,74,-99.99,,,0.00,1-wire,2013-04-08 08:48:00,
2013-04-08 03:53:00,39.3,32.0,29.77,SE,127,0.0,3.0,75,-99.99,,,0.00,1-wire,2013-04-08 08:53:00,
2013-04-08 03:58:00,39.2,31.9,29.77,SE,127,1.0,3.0,75,-99.99,,,0.00,1-wire,2013-04-08 08:58:00,
2013-04-08 04:03:00,39.2,31.9,29.77,SE,127,3.0,6.0,75,-99.99,,,0.00,1-wire,2013-04-08 09:03:00,
2013-04-08 04:08:00,39.3,32.0,29.76,SE,134,0.0,3.0,75,-99.99,,,0.00,1-wire,2013-04-08 09:08:00,
2013-04-08 04:13:00,39.5,32.1,29.76,SE,134,3.0,6.0,75,-99.99,,,0.00,1-wire,2013-04-08 09:13:00,
2013-04-08 04:18:00,39.6,32.2,29.75,SE,134,2.0,6.0,75,-99.99,,,0.00,1-wire,2013-04-08 09:18:00,
2013-04-08 04:23:00,39.8,32.3,29.75,SE,125,2.0,6.0,74,-99.99,,,0.00,1-wire,2013-04-08 09:23:00,
2013-04-08 04:28:00,39.7,32.3,29.75,SE,125,5.0,11.0,74,-99.99,,,0.00,1-wire,2013-04-08 09:28:00,
2013-04-08 04:33:00,39.8,32.3,29.74,SE,125,1.0,3.0,74,-99.99,,,0.00,1-wire,2013-04-08 09:33:00,
2013-04-08 04:38:00,39.9,32.5,29.73,SE,126,1.0,3.0,74,-99.99,,,0.00,1-wire,2013-04-08 09:38:00,
2013-04-08 04:43:00,40.2,32.8,29.73,SE,126,0.0,0.0,74,-99.99,,,0.00,1-wire,2013-04-08 09:43:00,
2013-04-08 04:48:00,40.2,32.7,29.73,SE,126,1.0,3.0,74,-99.99,,,0.00,1-wire,2013-04-08 09:48:00,
2013-04-08 04:53:00,40.2,32.6,29.73,SE,127,0.0,3.0,74,-99.99,,,0.00,1-wire,2013-04-08 09:53:00,
2013-04-08 04:58:00,40.6,32.9,29.73,SE,127,1.0,3.0,74,-99.99,,,0.00,1-wire,2013-04-08 09:58:00,
2013-04-08 05:03:00,40.6,32.8,29.73,SE,127,0.0,3.0,74,-99.99,,,0.00,1-wire,2013-04-08 10:03:00,
2013-04-08 05:08:00,40.6,32.9,29.73,ESE,123,2.0,6.0,74,-99.99,,,0.00,1-wire,2013-04-08 10:08:00,
2013-04-08 05:13:00,40.9,33.0,29.72,ESE,123,2.0,3.0,73,-99.99,,,0.00,1-wire,2013-04-08 10:13:00,
2013-04-08 05:19:00,41.0,33.1,29.72,ESE,123,2.0,6.0,73,-99.99,,,0.00,1-wire,2013-04-08 10:19:00,
2013-04-08 05:24:00,41.3,33.5,29.71,ESE,123,1.0,3.0,74,-99.99,,,0.00,1-wire,2013-04-08 10:24:00,
2013-04-08 05:30:00,41.4,33.3,29.71,ESE,123,1.0,6.0,73,-99.99,,,0.00,1-wire,2013-04-08 10:30:00,
2013-04-08 05:35:00,41.5,33.4,29.71,ESE,123,1.0,3.0,73,-99.99,,,0.00,1-wire,2013-04-08 10:35:00,
2013-04-08 05:40:00,41.7,33.4,29.71,SE,124,2.0,6.0,72,-99.99,,,0.00,1-wire,2013-04-08 10:40:00,
2013-04-08 05:45:00,42.1,33.9,29.71,SE,124,0.0,3.0,72,-99.99,,,0.00,1-wire,2013-04-08 10:45:00,
2013-04-08 05:50:00,42.2,33.9,29.71,SE,124,1.0,6.0,72,-99.99,,,0.00,1-wire,2013-04-08 10:50:00,
2013-04-08 05:56:00,42.4,34.1,29.71,ESE,123,0.0,3.0,72,-99.99,,,0.00,1-wire,2013-04-08 10:56:00,
2013-04-08 06:01:00,42.8,34.3,29.71,ESE,123,0.0,0.0,72,-99.99,,,0.00,1-wire,2013-04-08 11:01:00,
2013-04-08 06:07:00,42.9,35.1,29.70,SE,129,0.0,0.0,74,-99.99,,,0.00,1-wire,2013-04-08 11:07:00,
2013-04-08 06:12:00,42.5,35.6,29.70,SE,129,0.0,0.0,77,-99.99,,,0.00,1-wire,2013-04-08 11:12:00,
2013-04-08 06:17:00,42.3,36.3,29.70,SE,129,0.0,0.0,79,-99.99,,,0.00,1-wire,2013-04-08 11:17:00,
2013-04-08 06:23:00,41.9,36.6,29.69,SE,124,0.0,0.0,81,-99.99,,,0.00,1-wire,2013-04-08 11:23:00,
2013-04-08 06:28:00,41.9,36.9,29.69,SE,124,0.0,0.0,82,-99.99,,,0.00,1-wire,2013-04-08 11:28:00,
2013-04-08 06:34:00,42.0,37.4,29.69,SE,124,0.0,0.0,83,-99.99,,,0.00,1-wire,2013-04-08 11:34:00,
2013-04-08 06:39:00,41.8,37.3,29.69,ESE,117,0.0,0.0,84,-99.99,,,0.00,1-wire,2013-04-08 11:39:00,
2013-04-08 06:44:00,41.8,37.5,29.68,ESE,117,0.0,3.0,84,-99.99,,,0.00,1-wire,2013-04-08 11:44:00,
2013-04-08 06:49:00,42.1,38.0,29.67,ESE,117,0.0,0.0,85,-99.99,,,0.00,1-wire,2013-04-08 11:49:00,
2013-04-08 06:55:00,42.0,38.2,29.68,ESE,112,0.0,0.0,86,-99.99,,,0.00,1-wire,2013-04-08 11:55:00,
2013-04-08 07:00:00,42.1,38.5,29.68,ESE,112,0.0,0.0,87,-99.99,,,0.01,1-wire,2013-04-08 12:00:00,
2013-04-08 07:05:00,42.0,38.5,29.68,ESE,112,0.0,0.0,87,-99.99,,,0.02,1-wire,2013-04-08 12:05:00,
2013-04-08 07:11:00,42.0,38.7,29.68,East,81,0.0,0.0,88,-99.99,,,0.03,1-wire,2013-04-08 12:11:00,
2013-04-08 07:17:00,41.9,38.7,29.68,East,81,0.0,0.0,88,-99.99,,,0.04,1-wire,2013-04-08 12:17:00,
2013-04-08 07:22:00,42.0,39.0,29.68,East,83,0.0,0.0,89,-99.99,,,0.04,1-wire,2013-04-08 12:22:00,
2013-04-08 07:27:00,42.1,39.2,29.69,East,83,0.0,0.0,89,-99.99,,,0.05,1-wire,2013-04-08 12:27:00,
2013-04-08 07:32:00,42.0,39.3,29.69,East,83,0.0,0.0,90,-99.99,,,0.08,1-wire,2013-04-08 12:32:00,
2013-04-08 07:37:00,42.4,39.7,29.69,ENE,72,0.0,0.0,90,-99.99,,,0.09,1-wire,2013-04-08 12:37:00,
2013-04-08 07:42:00,41.9,39.3,29.69,ENE,72,0.0,0.0,90,-99.99,,,0.11,1-wire,2013-04-08 12:42:00,
2013-04-08 07:47:00,42.2,39.8,29.69,ENE,72,0.0,0.0,91,-99.99,,,0.12,1-wire,2013-04-08 12:47:00,
2013-04-08 07:53:00,41.7,39.4,29.69,ENE,60,0.0,0.0,92,-99.99,,,0.16,1-wire,2013-04-08 12:53:00,
2013-04-08 07:58:00,41.8,39.5,29.69,ENE,60,0.0,0.0,92,-99.99,,,0.18,1-wire,2013-04-08 12:58:00,
2013-04-08 08:03:00,41.1,39.1,29.69,ENE,60,3.0,6.0,92,-99.99,,,0.21,1-wire,2013-04-08 13:03:00,
2013-04-08 08:08:00,40.6,38.7,29.69,NE,41,2.0,6.0,93,-99.99,,,0.23,1-wire,2013-04-08 13:08:00,
2013-04-08 08:13:00,40.9,39.0,29.69,NE,41,0.0,3.0,93,-99.99,,,0.25,1-wire,2013-04-08 13:13:00,
2013-04-08 08:18:00,40.5,38.7,29.68,NE,41,3.0,6.0,93,-99.99,,,0.26,1-wire,2013-04-08 13:18:00,
2013-04-08 08:23:00,40.4,38.6,29.68,NE,36,4.0,6.0,93,-99.99,,,0.27,1-wire,2013-04-08 13:23:00,
2013-04-08 08:28:00,40.5,38.8,29.67,NE,36,3.0,6.0,94,-99.99,,,0.29,1-wire,2013-04-08 13:28:00,
2013-04-08 08:33:00,40.6,38.9,29.67,NE,36,3.0,6.0,94,-99.99,,,0.30,1-wire,2013-04-08 13:33:00,
2013-04-08 08:39:00,40.7,39.1,29.66,NNE,29,3.0,6.0,94,-99.99,,,0.32,1-wire,2013-04-08 13:39:00,
2013-04-08 08:44:00,40.4,38.8,29.66,NNE,29,4.0,6.0,94,-99.99,,,0.34,1-wire,2013-04-08 13:44:00,
2013-04-08 08:50:00,40.4,38.9,29.66,NNE,29,5.0,9.0,94,-99.99,,,0.36,1-wire,2013-04-08 13:50:00,
2013-04-08 08:56:00,40.3,38.8,29.66,NNE,27,7.0,9.0,94,-99.99,,,0.37,1-wire,2013-04-08 13:56:00,
2013-04-08 09:01:00,40.2,38.7,29.66,NNE,27,4.0,8.0,94,-99.99,,,0.38,1-wire,2013-04-08 14:01:00,
2013-04-08 09:07:00,40.1,38.7,29.66,NNE,16,3.0,8.0,95,-99.99,,,0.40,1-wire,2013-04-08 14:07:00,
2013-04-08 09:12:00,40.1,38.7,29.66,NNE,16,5.0,9.0,95,-99.99,,,0.42,1-wire,2013-04-08 14:12:00,
2013-04-08 09:18:00,40.2,38.8,29.66,NNE,16,3.0,6.0,95,-99.99,,,0.42,1-wire,2013-04-08 14:18:00,
2013-04-08 09:23:00,40.2,38.8,29.66,NNE,16,2.0,6.0,95,-99.99,,,0.43,1-wire,2013-04-08 14:23:00,
2013-04-08 09:29:00,40.3,39.0,29.65,NNE,16,4.0,6.0,95,-99.99,,,0.45,1-wire,2013-04-08 14:29:00,
2013-04-08 09:35:00,40.3,38.9,29.65,NNE,16,5.0,9.0,95,-99.99,,,0.46,1-wire,2013-04-08 14:35:00,
2013-04-08 09:40:00,40.1,38.7,29.65,NNE,18,6.0,11.0,95,-99.99,,,0.48,1-wire,2013-04-08 14:40:00,
2013-04-08 09:47:00,40.4,39.0,29.64,NNE,18,3.0,6.0,95,-99.99,,,0.50,1-wire,2013-04-08 14:47:00,
2013-04-08 09:52:00,40.6,39.3,29.64,NNE,18,3.0,6.0,95,-99.99,,,0.50,1-wire,2013-04-08 14:52:00,
2013-04-08 09:57:00,40.8,39.5,29.63,NNE,18,1.0,3.0,95,-99.99,,,0.51,1-wire,2013-04-08 14:57:00,
2013-04-08 10:02:00,40.8,39.5,29.63,NNE,18,5.0,9.0,95,-99.99,,,0.51,1-wire,2013-04-08 15:02:00,
2013-04-08 10:07:00,41.1,39.8,29.63,North,3,2.0,6.0,95,-99.99,,,0.51,1-wire,2013-04-08 15:07:00,
2013-04-08 10:12:00,41.3,40.1,29.62,North,3,2.0,6.0,95,-99.99,,,0.51,1-wire,2013-04-08 15:12:00,
2013-04-08 10:17:00,41.8,40.5,29.62,North,3,1.0,3.0,95,-99.99,,,0.51,1-wire,2013-04-08 15:17:00,
2013-04-08 10:22:00,42.0,40.7,29.61,North,3,1.0,3.0,95,-99.99,,,0.51,1-wire,2013-04-08 15:22:00,
2013-04-08 10:27:00,42.4,41.2,29.60,North,3,2.0,6.0,95,-99.99,,,0.51,1-wire,2013-04-08 15:27:00,
2013-04-08 10:33:00,42.9,41.7,29.64,North,3,2.0,3.0,95,-99.99,,,0.51,1-wire,2013-04-08 15:33:00,
2013-04-08 10:38:00,43.3,42.0,29.67,North,355,1.0,3.0,95,-99.99,,,0.51,1-wire,2013-04-08 15:38:00,
2013-04-08 10:43:00,43.7,42.5,29.68,North,355,6.0,11.0,95,-99.99,,,0.51,1-wire,2013-04-08 15:43:00,
2013-04-08 10:48:00,44.4,43.2,29.67,North,355,1.0,6.0,95,-99.99,,,0.51,1-wire,2013-04-08 15:48:00,
2013-04-08 10:53:00,45.4,44.2,29.67,NNW,340,2.0,6.0,95,-99.99,,,0.51,1-wire,2013-04-08 15:53:00,
2013-04-08 10:58:00,46.4,45.0,29.66,NNW,340,4.0,11.0,95,-99.99,,,0.51,1-wire,2013-04-08 15:58:00,
2013-04-08 11:03:00,47.3,45.7,29.67,NNW,340,2.0,6.0,94,-99.99,,,0.51,1-wire,2013-04-08 16:03:00,
2013-04-08 11:08:00,47.7,45.9,29.69,NNE,12,6.0,13.0,93,-99.99,,,0.51,1-wire,2013-04-08 16:08:00,
2013-04-08 11:13:00,47.9,45.8,29.69,NNE,12,4.0,6.0,92,-99.99,,,0.51,1-wire,2013-04-08 16:13:00,
2013-04-08 11:18:00,48.0,45.7,29.69,NNE,12,4.0,8.0,91,-99.99,,,0.51,1-wire,2013-04-08 16:18:00,
2013-04-08 11:24:00,48.4,46.0,29.70,North,5,1.0,6.0,91,-99.99,,,0.51,1-wire,2013-04-08 16:24:00,
2013-04-08 11:30:00,48.7,46.3,29.70,North,5,1.0,3.0,92,-99.99,,,0.51,1-wire,2013-04-08 16:30:00,
2013-04-08 11:35:00,48.0,45.3,29.70,North,5,5.0,13.0,90,-99.99,,,0.51,1-wire,2013-04-08 16:35:00,
2013-04-08 11:41:00,47.6,44.5,29.71,NNE,20,3.0,9.0,89,-99.99,,,0.51,1-wire,2013-04-08 16:41:00,
2013-04-08 11:46:00,47.3,44.1,29.71,NNE,20,1.0,6.0,89,-99.99,,,0.51,1-wire,2013-04-08 16:46:00,
2013-04-08 11:52:00,47.8,45.0,29.71,North,6,2.0,6.0,90,-99.99,,,0.51,1-wire,2013-04-08 16:52:00,
2013-04-08 11:57:00,48.4,45.0,29.71,North,6,2.0,6.0,88,-99.99,,,0.51,1-wire,2013-04-08 16:57:00,
2013-04-08 12:03:00,50.3,46.3,29.72,North,6,2.0,6.0,86,-99.99,,,0.51,1-wire,2013-04-08 17:03:00,
2013-04-08 12:09:00,51.4,46.4,29.72,NW,323,3.0,6.0,83,-99.99,,,0.51,1-wire,2013-04-08 17:09:00,
2013-04-08 12:14:00,52.8,46.8,29.72,NW,323,3.0,6.0,80,-99.99,,,0.51,1-wire,2013-04-08 17:14:00,
2013-04-08 12:20:00,53.6,47.7,29.73,NW,323,4.0,6.0,80,-99.99,,,0.51,1-wire,2013-04-08 17:20:00,
2013-04-08 12:25:00,54.8,48.6,29.72,NW,317,1.0,3.0,80,-99.99,,,0.51,1-wire,2013-04-08 17:25:00,
2013-04-08 12:31:00,55.4,47.4,29.73,NW,317,3.0,6.0,74,-99.99,,,0.51,1-wire,2013-04-08 17:31:00,
2013-04-08 12:37:00,55.6,48.0,29.73,NNW,329,2.0,6.0,76,-99.99,,,0.51,1-wire,2013-04-08 17:37:00,
2013-04-08 12:42:00,55.9,47.9,29.73,NNW,329,3.0,6.0,74,-99.99,,,0.51,1-wire,2013-04-08 17:42:00,
2013-04-08 12:48:00,56.0,48.3,29.73,NNW,329,2.0,6.0,75,-99.99,,,0.51,1-wire,2013-04-08 17:48:00,
2013-04-08 12:53:00,55.3,47.2,29.74,NNW,333,2.0,6.0,74,-99.99,,,0.51,1-wire,2013-04-08 17:53:00,
2013-04-08 12:58:00,55.9,47.5,29.73,NNW,333,2.0,6.0,73,-99.99,,,0.51,1-wire,2013-04-08 17:58:00,
2013-04-08 13:03:00,55.4,47.8,29.74,NNW,333,1.0,3.0,75,-99.99,,,0.51,1-wire,2013-04-08 18:03:00,
2013-04-08 13:08:00,56.1,48.3,29.74,NNW,346,3.0,6.0,75,-99.99,,,0.51,1-wire,2013-04-08 18:08:00,
2013-04-08 13:13:00,56.9,48.6,29.74,NNW,346,1.0,3.0,74,-99.99,,,0.51,1-wire,2013-04-08 18:13:00,
2013-04-08 13:18:00,57.5,48.4,29.74,NNW,346,3.0,6.0,72,-99.99,,,0.51,1-wire,2013-04-08 18:18:00,
2013-04-08 13:24:00,57.9,49.1,29.75,North,349,1.0,3.0,73,-99.99,,,0.51,1-wire,2013-04-08 18:24:00,
2013-04-08 13:29:00,58.1,48.2,29.74,North,349,0.0,3.0,69,-99.99,,,0.51,1-wire,2013-04-08 18:29:00,
2013-04-08 13:35:00,58.5,48.5,29.75,North,349,1.0,6.0,69,-99.99,,,0.51,1-wire,2013-04-08 18:35:00,
2013-04-08 13:41:00,58.7,49.0,29.75,North,358,0.0,3.0,70,-99.99,,,0.51,1-wire,2013-04-08 18:41:00,
2013-04-08 13:47:00,58.7,48.5,29.75,North,358,1.0,3.0,69,-99.99,,,0.51,1-wire,2013-04-08 18:47:00,
2013-04-08 13:52:00,59.0,48.5,29.75,North,356,1.0,3.0,68,-99.99,,,0.51,1-wire,2013-04-08 18:52:00,
2013-04-08 13:57:00,59.3,49.2,29.75,North,356,1.0,3.0,69,-99.99,,,0.51,1-wire,2013-04-08 18:57:00,
2013-04-08 14:02:00,59.4,48.6,29.75,North,356,1.0,3.0,68,-99.99,,,0.51,1-wire,2013-04-08 19:02:00,
2013-04-08 14:07:00,59.9,49.7,29.75,North,9,1.0,6.0,69,-99.99,,,0.51,1-wire,2013-04-08 19:07:00,
2013-04-08 14:12:00,59.9,49.6,29.75,North,9,2.0,3.0,69,-99.99,,,0.51,1-wire,2013-04-08 19:12:00,
2013-04-08 14:17:00,58.8,48.3,29.75,North,9,2.0,3.0,68,-99.99,,,0.51,1-wire,2013-04-08 19:17:00,
2013-04-08 14:22:00,58.3,48.5,29.76,North,350,0.0,3.0,70,-99.99,,,0.51,1-wire,2013-04-08 19:22:00,
2013-04-08 14:27:00,59.6,49.5,29.75,North,350,2.0,6.0,69,-99.99,,,0.51,1-wire,2013-04-08 19:27:00,
2013-04-08 14:32:00,60.2,49.5,29.75,North,350,2.0,3.0,68,-99.99,,,0.51,1-wire,2013-04-08 19:32:00,
2013-04-08 14:37:00,59.8,49.0,29.75,North,11,2.0,6.0,67,-99.99,,,0.51,1-wire,2013-04-08 19:37:00,
2013-04-08 14:43:00,59.5,49.4,29.75,North,11,2.0,3.0,69,-99.99,,,0.51,1-wire,2013-04-08 19:43:00,
2013-04-08 14:48:00,60.2,49.4,29.75,North,11,2.0,3.0,67,-99.99,,,0.51,1-wire,2013-04-08 19:48:00,
2013-04-08 14:54:00,60.8,49.9,29.75,North,11,0.0,0.0,67,-99.99,,,0.51,1-wire,2013-04-08 19:54:00,
2013-04-08 14:59:00,60.2,49.1,29.76,North,11,2.0,6.0,67,-99.99,,,0.51,1-wire,2013-04-08 19:59:00,
2013-04-08 15:05:00,59.6,48.7,29.76,North,11,2.0,6.0,67,-99.99,,,0.51,1-wire,2013-04-08 20:05:00,
2013-04-08 15:10:00,59.5,48.5,29.76,NNE,21,2.0,6.0,67,-99.99,,,0.51,1-wire,2013-04-08 20:10:00,
2013-04-08 15:15:00,58.8,48.3,29.76,NNE,21,2.0,3.0,68,-99.99,,,0.51,1-wire,2013-04-08 20:15:00,
2013-04-08 15:23:00,59.3,49.2,29.77,NNE,24,2.0,3.0,69,-99.99,,,0.51,1-wire,2013-04-08 20:23:00,
2013-04-08 15:28:00,58.8,48.1,29.76,NNE,24,2.0,3.0,68,-99.99,,,0.51,1-wire,2013-04-08 20:28:00,
2013-04-08 15:35:00,58.9,48.0,29.77,NNE,24,3.0,6.0,67,-99.99,,,0.51,1-wire,2013-04-08 20:35:00,
2013-04-08 15:40:00,59.2,48.3,29.77,NNE,21,2.0,6.0,67,-99.99,,,0.51,1-wire,2013-04-08 20:40:00,
2013-04-08 15:45:00,59.0,48.1,29.77,NNE,21,3.0,6.0,67,-99.99,,,0.51,1-wire,2013-04-08 20:45:00,
2013-04-08 15:50:00,59.4,48.5,29.77,NNE,21,2.0,6.0,67,-99.99,,,0.51,1-wire,2013-04-08 20:50:00,
2013-04-08 15:55:00,59.2,48.2,29.77,NNE,21,2.0,6.0,67,-99.99,,,0.51,1-wire,2013-04-08 20:55:00,
2013-04-08 16:00:00,59.2,48.6,29.77,NNE,21,2.0,6.0,68,-99.99,,,0.51,1-wire,2013-04-08 21:00:00,
2013-04-08 16:05:00,59.7,48.6,29.77,NNE,21,3.0,6.0,67,-99.99,,,0.51,1-wire,2013-04-08 21:05:00,
2013-04-08 16:12:00,60.0,48.6,29.78,ENE,60,3.0,6.0,66,-99.99,,,0.51,1-wire,2013-04-08 21:12:00,
2013-04-08 16:17:00,59.7,48.3,29.78,ENE,60,2.0,3.0,66,-99.99,,,0.51,1-wire,2013-04-08 21:17:00,
2013-04-08 16:22:00,59.7,48.3,29.78,ENE,62,1.0,3.0,66,-99.99,,,0.51,1-wire,2013-04-08 21:22:00,
2013-04-08 16:27:00,59.8,48.6,29.78,ENE,62,2.0,3.0,66,-99.99,,,0.51,1-wire,2013-04-08 21:27:00,
2013-04-08 16:32:00,59.6,48.3,29.78,ENE,62,1.0,3.0,66,-99.99,,,0.51,1-wire,2013-04-08 21:32:00,
2013-04-08 16:37:00,59.7,48.3,29.78,ENE,71,1.0,3.0,66,-99.99,,,0.51,1-wire,2013-04-08 21:37:00,
2013-04-08 16:43:00,59.6,48.4,29.78,ENE,71,2.0,6.0,66,-99.99,,,0.51,1-wire,2013-04-08 21:43:00,
2013-04-08 16:48:00,59.7,48.5,29.79,ENE,71,3.0,6.0,67,-99.99,,,0.51,1-wire,2013-04-08 21:48:00,
2013-04-08 16:53:00,59.3,48.1,29.79,ENE,69,1.0,3.0,66,-99.99,,,0.51,1-wire,2013-04-08 21:53:00,
2013-04-08 16:58:00,59.1,47.9,29.79,ENE,69,2.0,6.0,66,-99.99,,,0.51,1-wire,2013-04-08 21:58:00,
2013-04-08 17:04:00,59.3,48.2,29.79,ENE,69,1.0,3.0,67,-99.99,,,0.51,1-wire,2013-04-08 22:04:00,
2013-04-08 17:09:00,58.7,47.7,29.80,ENE,77,1.0,3.0,67,-99.99,,,0.51,1-wire,2013-04-08 22:09:00,
2013-04-08 17:14:00,58.9,47.9,29.81,ENE,77,1.0,3.0,67,-99.99,,,0.51,1-wire,2013-04-08 22:14:00,
2013-04-08 17:20:00,59.1,47.8,29.81,ENE,77,2.0,3.0,66,-99.99,,,0.51,1-wire,2013-04-08 22:20:00,
2013-04-08 17:25:00,58.2,47.6,29.82,East,90,3.0,6.0,68,-99.99,,,0.51,1-wire,2013-04-08 22:25:00,
2013-04-08 17:30:00,57.7,47.3,29.81,East,90,2.0,3.0,68,-99.99,,,0.51,1-wire,2013-04-08 22:30:00,
2013-04-08 17:37:00,57.6,47.6,29.82,East,82,1.0,3.0,69,-99.99,,,0.51,1-wire,2013-04-08 22:37:00,
2013-04-08 17:42:00,57.4,47.2,29.82,East,82,1.0,3.0,69,-99.99,,,0.51,1-wire,2013-04-08 22:42:00,
2013-04-08 17:47:00,57.1,47.1,29.82,East,82,1.0,6.0,69,-99.99,,,0.51,1-wire,2013-04-08 22:47:00,
2013-04-08 17:52:00,56.7,47.0,29.82,East,80,0.0,3.0,70,-99.99,,,0.51,1-wire,2013-04-08 22:52:00,
2013-04-08 17:58:00,56.4,47.0,29.82,East,80,2.0,5.0,71,-99.99,,,0.51,1-wire,2013-04-08 22:58:00,
2013-04-08 18:04:00,56.0,46.8,29.83,East,80,1.0,3.0,71,-99.99,,,0.51,1-wire,2013-04-08 23:04:00,
2013-04-08 18:09:00,56.1,46.7,29.84,East,96,2.0,6.0,71,-99.99,,,0.51,1-wire,2013-04-08 23:09:00,
2013-04-08 18:15:00,55.7,46.6,29.84,East,96,1.0,3.0,71,-99.99,,,0.51,1-wire,2013-04-08 23:15:00,
2013-04-08 18:20:00,55.2,46.3,29.84,East,96,2.0,6.0,72,-99.99,,,0.51,1-wire,2013-04-08 23:20:00,
2013-04-08 18:25:00,55.2,46.4,29.84,East,90,2.0,6.0,72,-99.99,,,0.51,1-wire,2013-04-08 23:25:00,
2013-04-08 18:31:00,54.9,46.3,29.85,East,90,1.0,3.0,73,-99.99,,,0.51,1-wire,2013-04-08 23:31:00,
2013-04-08 18:37:00,54.5,46.2,29.85,East,84,1.0,3.0,73,-99.99,,,0.51,1-wire,2013-04-08 23:37:00,
2013-04-08 18:43:00,53.8,45.7,29.85,East,84,2.0,6.0,74,-99.99,,,0.51,1-wire,2013-04-08 23:43:00,
2013-04-08 18:49:00,53.7,45.7,29.85,East,84,0.0,3.0,74,-99.99,,,0.51,1-wire,2013-04-08 23:49:00,
2013-04-08 18:55:00,53.3,45.7,29.86,East,82,0.0,0.0,75,-99.99,,,0.51,1-wire,2013-04-08 23:55:00,
2013-04-08 19:01:00,53.2,45.8,29.86,East,82,0.0,3.0,76,-99.99,,,0.51,1-wire,2013-04-09 00:01:00,
2013-04-08 19:07:00,52.8,45.5,29.86,East,92,0.0,0.0,76,-99.99,,,0.51,1-wire,2013-04-09 00:07:00,
2013-04-08 19:12:00,52.9,45.7,29.86,East,92,0.0,0.0,76,-99.99,,,0.51,1-wire,2013-04-09 00:12:00,
2013-04-08 19:17:00,52.3,45.4,29.87,East,92,0.0,0.0,77,-99.99,,,0.51,1-wire,2013-04-09 00:17:00,
2013-04-08 19:22:00,51.6,45.0,29.88,East,100,1.0,6.0,78,-99.99,,,0.51,1-wire,2013-04-09 00:22:00,
2013-04-08 19:28:00,51.3,44.8,29.88,East,100,0.0,3.0,79,-99.99,,,0.51,1-wire,2013-04-09 00:28:00,
2013-04-08 19:33:00,50.8,44.5,29.88,East,100,0.0,0.0,79,-99.99,,,0.51,1-wire,2013-04-09 00:33:00,
2013-04-08 19:38:00,50.5,44.4,29.88,East,87,0.0,0.0,80,-99.99,,,0.51,1-wire,2013-04-09 00:38:00,
2013-04-08 19:43:00,49.9,44.1,29.88,East,87,0.0,0.0,81,-99.99,,,0.51,1-wire,2013-04-09 00:43:00,
2013-04-08 19:48:00,49.6,43.8,29.89,East,87,1.0,3.0,80,-99.99,,,0.51,1-wire,2013-04-09 00:48:00,
2013-04-08 19:53:00,49.3,43.9,29.89,East,93,0.0,0.0,81,-99.99,,,0.51,1-wire,2013-04-09 00:53:00,
2013-04-08 19:58:00,49.3,43.7,29.90,East,93,0.0,0.0,81,-99.99,,,0.51,1-wire,2013-04-09 00:58:00,
2013-04-08 20:03:00,48.5,43.3,29.90,East,93,1.0,6.0,82,-99.99,,,0.51,1-wire,2013-04-09 01:03:00,
2013-04-08 20:08:00,48.4,43.3,29.90,East,79,0.0,0.0,82,-99.99,,,0.51,1-wire,2013-04-09 01:08:00,
2013-04-08 20:13:00,48.2,43.2,29.90,East,79,0.0,0.0,83,-99.99,,,0.51,1-wire,2013-04-09 01:13:00,
2013-04-08 20:19:00,48.0,43.3,29.90,East,79,0.0,3.0,84,-99.99,,,0.51,1-wire,2013-04-09 01:19:00,
2013-04-08 20:24:00,47.9,43.4,29.91,ENE,71,0.0,3.0,84,-99.99,,,0.51,1-wire,2013-04-09 01:24:00,
2013-04-08 20:30:00,47.4,42.9,29.92,ENE,71,2.0,5.0,84,-99.99,,,0.51,1-wire,2013-04-09 01:30:00,
2013-04-08 20:35:00,47.5,43.1,29.92,ENE,71,0.0,0.0,85,-99.99,,,0.51,1-wire,2013-04-09 01:35:00,
2013-04-08 20:41:00,47.5,43.1,29.92,East,82,0.0,3.0,85,-99.99,,,0.51,1-wire,2013-04-09 01:41:00,
2013-04-08 20:47:00,47.0,42.7,29.92,East,82,0.0,3.0,85,-99.99,,,0.51,1-wire,2013-04-09 01:47:00,
2013-04-08 20:52:00,46.9,42.7,29.93,ENE,72,1.0,3.0,85,-99.99,,,0.51,1-wire,2013-04-09 01:52:00,
2013-04-08 20:58:00,46.9,42.8,29.92,ENE,72,1.0,3.0,85,-99.99,,,0.51,1-wire,2013-04-09 01:58:00,
2013-04-08 21:03:00,46.6,42.6,29.93,ENE,72,1.0,3.0,86,-99.99,,,0.51,1-wire,2013-04-09 02:03:00,
2013-04-08 21:08:00,46.6,42.7,29.94,ENE,66,0.0,3.0,86,-99.99,,,0.51,1-wire,2013-04-09 02:08:00,
2013-04-08 21:13:00,46.9,42.9,29.94,ENE,66,0.0,3.0,86,-99.99,,,0.51,1-wire,2013-04-09 02:13:00,
2013-04-08 21:18:00,46.7,42.9,29.94,ENE,66,0.0,3.0,86,-99.99,,,0.51,1-wire,2013-04-09 02:18:00,
2013-04-08 21:23:00,46.5,42.6,29.94,ENE,71,2.0,6.0,86,-99.99,,,0.51,1-wire,2013-04-09 02:23:00,
2013-04-08 21:28:00,46.3,42.5,29.94,ENE,71,1.0,3.0,86,-99.99,,,0.51,1-wire,2013-04-09 02:28:00,
2013-04-08 21:34:00,46.4,42.6,29.94,ENE,71,0.0,3.0,87,-99.99,,,0.51,1-wire,2013-04-09 02:34:00,
2013-04-08 21:39:00,46.3,42.6,29.94,ENE,68,3.0,10.0,87,-99.99,,,0.51,1-wire,2013-04-09 02:39:00,
2013-04-08 21:44:00,46.4,42.7,29.95,ENE,68,0.0,3.0,87,-99.99,,,0.51,1-wire,2013-04-09 02:44:00,
2013-04-08 21:50:00,46.5,42.7,29.96,ENE,68,1.0,6.0,87,-99.99,,,0.51,1-wire,2013-04-09 02:50:00,
2013-04-08 21:55:00,46.4,42.7,29.96,ENE,69,0.0,3.0,87,-99.99,,,0.51,1-wire,2013-04-09 02:55:00,
2013-04-08 22:00:00,46.5,42.8,29.96,ENE,69,1.0,3.0,87,-99.99,,,0.51,1-wire,2013-04-09 03:00:00,
2013-04-08 22:07:00,46.4,42.7,29.96,ENE,62,1.0,3.0,87,-99.99,,,0.51,1-wire,2013-04-09 03:07:00,
2013-04-08 22:12:00,46.4,42.7,29.96,ENE,62,2.0,6.0,87,-99.99,,,0.51,1-wire,2013-04-09 03:12:00,
2013-04-08 22:17:00,46.5,42.9,29.96,ENE,62,2.0,3.0,87,-99.99,,,0.51,1-wire,2013-04-09 03:17:00,
2013-04-08 22:22:00,46.5,42.7,29.96,ENE,62,2.0,6.0,87,-99.99,,,0.51,1-wire,2013-04-09 03:22:00,
2013-04-08 22:27:00,46.5,42.7,29.96,ENE,62,0.0,3.0,87,-99.99,,,0.51,1-wire,2013-04-09 03:27:00,
2013-04-08 22:32:00,46.3,42.5,29.96,ENE,62,1.0,3.0,87,-99.99,,,0.51,1-wire,2013-04-09 03:32:00,
2013-04-08 22:37:00,46.5,42.7,29.97,ENE,68,0.0,3.0,87,-99.99,,,0.51,1-wire,2013-04-09 03:37:00,
2013-04-08 22:42:00,46.1,42.5,29.97,ENE,68,1.0,3.0,87,-99.99,,,0.51,1-wire,2013-04-09 03:42:00,
2013-04-08 22:47:00,46.0,42.5,29.97,ENE,68,0.0,0.0,87,-99.99,,,0.51,1-wire,2013-04-09 03:47:00,
2013-04-08 22:52:00,46.0,42.6,29.97,ENE,61,1.0,3.0,88,-99.99,,,0.51,1-wire,2013-04-09 03:52:00,
2013-04-08 22:58:00,45.5,42.2,29.97,ENE,61,2.0,3.0,88,-99.99,,,0.51,1-wire,2013-04-09 03:58:00,
2013-04-08 23:00:00,45.3,41.9,29.97,ENE,61,4.0,11.0,88,-99.99,,,0.51,1-wire,2013-04-09 04:00:00,
2013-04-08 23:03:00,45.4,42.1,29.97,ENE,61,1.0,3.0,88,-99.99,,,0.51,1-wire,2013-04-09 04:03:00,
2013-04-08 23:06:00,45.2,42.0,29.97,ENE,58,1.0,6.0,89,-99.99,,,0.51,1-wire,2013-04-09 04:06:00,
2013-04-08 23:08:00,45.3,42.2,29.96,ENE,58,1.0,3.0,89,-99.99,,,0.51,1-wire,2013-04-09 04:08:00,
2013-04-08 23:14:00,45.2,42.1,29.97,ENE,58,2.0,6.0,89,-99.99,,,0.51,1-wire,2013-04-09 04:14:00,
2013-04-08 23:19:00,45.1,42.1,29.97,ENE,58,1.0,3.0,89,-99.99,,,0.51,1-wire,2013-04-09 04:19:00,
2013-04-08 23:25:00,45.2,42.2,29.97,ENE,57,0.0,3.0,89,-99.99,,,0.51,1-wire,2013-04-09 04:25:00,
2013-04-08 23:30:00,45.2,42.2,29.97,ENE,57,0.0,3.0,89,-99.99,,,0.51,1-wire,2013-04-09 04:30:00,
2013-04-08 23:35:00,44.7,41.7,29.98,ENE,57,2.0,6.0,89,-99.99,,,0.51,1-wire,2013-04-09 04:35:00,
2013-04-08 23:41:00,44.5,41.8,29.99,NE,55,1.0,3.0,90,-99.99,,,0.51,1-wire,2013-04-09 04:41:00,
2013-04-08 23:47:00,43.9,41.4,29.98,NE,55,2.0,6.0,91,-99.99,,,0.51,1-wire,2013-04-09 04:47:00,
2013-04-08 23:52:00,43.8,41.5,29.98,NE,54,2.0,6.0,92,-99.99,,,0.51,1-wire,2013-04-09 04:52:00,
2013-04-08 23:57:00,44.0,41.7,29.99,NE,54,0.0,3.0,91,-99.99,,,0.51,1-wire,2013-04-09 04:57:00,